Location: Artiguedieu
(43.5000°N, 0.5454°E)
Time: 10:00:57
(UTC+00:00)

Vanguard 1 Rocket - Pass Details

Date: 01 August 2021
Orbit: 650 x 4226 km, 34.3° (Epoch: 24 September)

Event Time Altitude Azimuth Distance (km) Brightness Sun altitude
Rises 09:07:01 0° 226° (SW) 8,337 12.1 44.9°
Reaches altitude 10° 09:13:42 10° 221° (SW) 7,037 11.9 46.0°
Maximum altitude 09:32:57 42° 160° (SSE) 3,549 11.6 49.2°
Drops below altitude 10° 09:44:05 10° 95° (E) 4,192 11.5 51.0°
Sets 09:46:54 0° 88° (E) 4,816 11.6 51.4°
